Location: Indian Tree Observatory
(39.4030°N, 104.5929°W)
Time: 07:11:35
(UTC-07:00)

Envisat - Pass Details

Date: 22 November 2018
Orbit: 764 x 766 km, 98.2° (Epoch: 13 December)

Event Time Altitude Azimuth Distance (km) Brightness Sun altitude
Rises 19:08:49 0° 175° (S) 3,213 6.2 -28.7°
Reaches altitude 10° 19:11:09 10° 179° (S) 2,291 5.5 -29.2°
Enters shadow 19:11:28 12° 180° (S) 2,165 5.3 -29.2°
Exits shadow 19:15:38 57° 232° (SW) 901 3.5 -30.0°
Maximum altitude 19:16:07 60° 259° (W) 876 3.4 -30.1°
Drops below altitude 10° 19:21:09 10° 340° (NNW) 2,306 5.6 -31.1°
Sets 19:23:30 0° 344° (NNW) 3,236 6.4 -31.5°
